Temp
-6 -6 -6 -6 -6 -7 -8 -8 -7 -6 -6 -6 -5 -6 -6 -6 -6 -6 -6 -6 -6 -6 -6 -6 -6 -6 -6 -6 -6 -6 -5 -6 -6 -6 -6 -6 -6 -6 -6 -6 -6 -7 -7
-6 -6 -6 -6 -6 -7 -7 -8 -7 -7 -6 -6 -6 -6 -6 -6 -6 -6 -6 -6 -6 -6 -6 -6 -6 -6 -6 -6 -6 -6 -6 -6 -5 -6 -6 -6 -6 -6 -6 -6 -6 -7 -7
-6 -6 -7 -7 -7 -7 -7 -7 -7 -6 -6 -5 -6 -6 -6 -5 -6 -6 -6 -6 -5 -6 -6 -6 -6 -6 -6 -6 -6 -6 -6 -6 -6 -6 -6 -6 -6 -6 -6 -6 -6 -6 -7
-6 -6 -7 -6 -7 -7 -7 -7 -6 -6 -6 -6 -5 -6 -5 -6 -5 -6 -6 -5 -6 -6 -6 -6 -6 -6 -6 -6 -6 -6 -5 -6 -6 -6 -6 -6 -6 -6 -6 -6 -6 -7 -7
-6 -7 -7 -7 -7 -7 -7 -7 -6 -6 -6 -5 -6 -6 -6 -5 -6 -6 -6 -5 -6 -6 -6 -6 -6 -6 -6 -6 -6 -6 -5 -6 -5 -5 -6 -6 -6 -6 -6 -6 -6 -6 -6
-6 -7 -7 -7 -7 -6 -7 -7 -7 -6 -6 -5 -5 -6 -6 -6 -6 -6 -6 -6 -6 -6 -6 -6 -5 -6 -5 -5 -5 -6 -6 -6 -5 -6 -6 -6 -6 -6 -6 -6 -6 -6 -6
-6 -6 -7 -6 -7 -7 -7 -6 -6 -6 -6 -6 -6 -6 -6 -6 -6 -6 -6 -6 -6 -5 -6 -6 -5 -6 -5 -5 -5 -6 -6 -6 -6 -6 -6 -6 -6 -6 -6 -6 -6 -6 -6
-6 -7 -7 -7 -7 -7 -6 -6 -6 -6 -6 -6 -6 -6 -6 -6 -6 -6 -6 -6 -6 -6 -6 -6 -6 -5 -5 -5 -6 -6 -6 -6 -6 -6 -6 -6 -6 -6 -6 -5 -5 -5 -6
-8 -7 -7 -7 -7 -7 -7 -6 -6 -6 -6 -6 -6 -6 -6 -6 -6 -6 -6 -6 -6 -6 -6 -6 -6 -5 -6 -6 -5 -6 -6 -6 -6 -5 -5 -6 -6 -5 -6 -5 -5 -5 -6
-7 -7 -7 -7 -7 -7 -7 -7 -6 -6 -6 -6 -6 -6 -6 -6 -6 -6 -6 -6 -6 -6 -6 -6 -6 -6 -6 -6 -5 -5 -6 -6 -6 -5 -5 -6 -6 -5 -5 -5 -5 -5 -6
-7 -7 -7 -6 -6 -6 -6 -6 -6 -6 -6 -6 -6 -6 -7 -6 -6 -6 -6 -6 -7 -6 -6 -6 -6 -6 -6 -5 -5 -5 -5 -5 -5 -5 -5 -6 -6 -6 -5 -5 -5 -5 -5
-7 -7 -7 -6 -6 -6 -6 -6 -6 -6 -6 -6 -7 -6 -7 -6 -6 -6 -7 -7 -7 -7 -7 -7 -6 -6 -5 -5 -5 -5 -5 -5 -5 -5 -5 -5 -6 -6 -5 -6 -5 -5 -5
-7 -7 -6 -6 -6 -6 -6 -6 -6 -7 -7 -7 -7 -7 -7 -6 -6 -6 -7 -7 -6 -7 -7 -7 -6 -6 -6 -6 -6 -5 -5 -5 -5 -5 -5 -6 -6 -6 -6 -6 -5 -5 -5
-7 -7 -6 -6 -6 -7 -7 -7 -7 -7 -8 -8 -7 -7 -7 -7 -6 -6 -7 -7 -7 -7 -7 -6 -6 -6 -6 -6 -6 -6 -6 -6 -6 -5 -5 -5 -6 -6 -6 -6 -5 -4 -6
-7 -7 -7 -6 -7 -7 -7 -8 -8 -8 -8 -8 -7 -8 -7 -7 -7 -6 -7 -7 -7 -7 -7 -7 -6 -6 -6 -6 -6 -6 -6 -6 -5 -5 -6 -5 -5 -5 -5 -6 -6 -5 -6
-7 -7 -7 -7 -7 -7 -7 -8 -8 -8 -8 -8 -8 -8 -8 -8 -7 -7 -7 -7 -7 -7 -7 -7 -7 -7 -7 -7 -6 -6 -6 -6 -6 -6 -5 -5 -5 -5 -5 -6 -6 -6 -7
-7 -7 -7 -7 -7 -7 -7 -8 -8 -8 -8 -8 -8 -8 -8 -8 -8 -8 -8 -8 -7 -7 -7 -7 -7 -7 -7 -7 -7 -7 -6 -6 -6 -6 -5 -5 -5 -6 -6 -6 -6 -6 -6
-8 -8 -8 -8 -8 -7 -7 -7 -8 -8 -8 -8 -8 -8 -8 -8 -8 -8 -8 -8 -8 -8 -8 -8 -8 -8 -8 -7 -7 -7 -7 -6 -6 -6 -6 -6 -6 -6 -6 -6 -6 -6 -6
-8 -8 -8 -8 -8 -7 -7 -7 -7 -7 -8 -7 -8 -8 -9 -9 -9 -8 -8 -7 -8 -8 -8 -8 -8 -8 -8 -8 -8 -7 -7 -7 -7 -7 -7 -7 -6 -6 -7 -7 -6 -7 -7
-8 -8 -8 -8 -8 -7 -7 -6 -7 -7 -7 -7 -8 -8 -8 -9 -9 -9 -9 -8 -8 -7 -8 -8 -8 -8 -8 -7 -7 -7 -6 -7 -7 -7 -7 -7 -7 -7 -7 -8 -7 -7 -7
-8 -8 -8 -8 -8 -8 -8 -6 -6 -6 -7 -7 -7 -8 -8 -8 -9 -9 -10 -9 -9 -8 -7 -7 -8 -8 -9 -9 -7 -7 -6 -6 -6 -6 -8 -8 -8 -7 -7 -6 -7 -7 -7
-8 -8 -8 -8 -8 -8 -7 -7 -6 -6 -7 -7 -8 -8 -8 -8 -8 -8 -9 -8 -8 -8 -8 -7 -8 -7 -7 -7 -7 -7 -7 -7 -7 -7 -6 -8 -9 -8 -8 -8 -7 -7 -7
-8 -7 -7 -7 -7 -7 -7 -7 -6 -6 -6 -7 -7 -8 -8 -9 -8 -8 -8 -9 -9 -9 -8 -7 -7 -8 -7 -7 -7 -7 -6 -6 -7 -7 -8 -8 -9 -8 -8 -8 -8 -8 -7
-7 -7 -7 -7 -7 -7 -7 -7 -7 -7 -7 -7 -7 -8 -8 -9 -8 -8 -5 -9 -9 -9 -9 -9 -8 -8 -8 -8 -8 -8 -8 -7 -7 -7 -7 -8 -8 -8 -8 -8 -8 -8 -8
-8 -8 -7 -7 -7 -7 -7 -7 -7 -7 -7 -7 -8 -8 -8 -8 -8 -6 -7 -9 -9 -9 -9 -9 -8 -8 -8 -9 -8 -8 -8 -8 -8 -8 -7 -8 -7 -8 -8 -8 -7 -8 -8
-8 -8 -8 -8 -8 -7 -7 -7 -7 -7 -7 -7 -7 -8 -8 -8 -8 -8 -9 -9 -9 -10 -8 -7 -7 -8 -9 -8 -8 -8 -8 -8 -8 -8 -8 -8 -8 -8 -8 -8 -8 -8 -8
Height
5902 5899 5898 5898 5896 5893 5892 5893 5894 5896 5897 5898 5899 5899 5900 5900 5900 5900 5899 5900 5901 5901 5903 5903 5904 5905 5906 5906 5903 5906 5906 5906 5905 5905 5906 5906 5907 5906 5906 5906 5908 5908 5909
5901 5898 5897 5897 5896 5894 5894 5893 5894 5895 5895 5896 5896 5897 5898 5898 5898 5898 5897 5897 5898 5898 5899 5900 5901 5902 5903 5903 5904 5904 5905 5905 5902 5906 5905 5906 5907 5906 5906 5907 5908 5909 5909
5900 5897 5896 5895 5895 5894 5893 5893 5893 5893 5894 5894 5894 5894 5894 5896 5896 5896 5895 5895 5895 5896 5895 5897 5899 5898 5899 5900 5901 5902 5903 5903 5901 5903 5904 5903 5905 5905 5905 5906 5907 5909 5909
5898 5896 5894 5893 5892 5892 5892 5892 5891 5890 5890 5891 5891 5892 5892 5892 5893 5893 5893 5892 5892 5892 5892 5892 5894 5896 5896 5898 5899 5900 5902 5901 5901 5902 5903 5903 5904 5904 5904 5906 5907 5909 5910
5897 5894 5893 5893 5891 5890 5890 5889 5888 5887 5886 5887 5888 5888 5888 5888 5890 5891 5890 5892 5890 5889 5888 5889 5890 5892 5893 5894 5896 5897 5898 5898 5897 5899 5900 5901 5902 5903 5903 5904 5906 5907 5909
5897 5895 5894 5893 5892 5890 5889 5887 5887 5885 5883 5883 5884 5885 5885 5884 5885 5886 5887 5887 5887 5885 5885 5883 5885 5886 5887 5889 5890 5891 5893 5895 5895 5896 5897 5899 5900 5902 5902 5903 5904 5906 5907
5898 5896 5895 5894 5892 5891 5890 5888 5886 5884 5882 5880 5881 5882 5882 5881 5882 5882 5884 5884 5883 5883 5880 5881 5881 5879 5881 5883 5884 5886 5888 5891 5891 5892 5894 5896 5897 5899 5901 5902 5902 5904 5905
5898 5897 5896 5895 5894 5892 5890 5888 5885 5883 5881 5880 5879 5879 5879 5879 5879 5879 5880 5880 5880 5879 5879 5879 5880 5879 5879 5881 5881 5883 5884 5886 5887 5889 5890 5892 5894 5896 5899 5899 5884 5899 5903
5899 5897 5896 5895 5893 5891 5889 5887 5885 5882 5880 5879 5878 5877 5877 5876 5875 5876 5875 5876 5875 5876 5875 5876 5876 5877 5878 5878 5878 5880 5881 5883 5883 5884 5886 5887 5890 5892 5895 5899 5899 5901 5901
5897 5895 5894 5893 5892 5889 5886 5885 5883 5881 5879 5877 5875 5874 5874 5873 5872 5873 5873 5873 5873 5872 5871 5871 5871 5872 5873 5874 5875 5875 5877 5879 5879 5880 5881 5880 5885 5888 5891 5894 5897 5898 5898
5893 5893 5892 5891 5889 5887 5885 5883 5879 5877 5875 5874 5873 5872 5871 5870 5869 5869 5869 5870 5869 5869 5868 5867 5868 5868 5868 5868 5869 5870 5872 5874 5874 5876 5877 5878 5881 5883 5886 5889 5891 5893 5895
5890 5890 5890 5889 5887 5886 5884 5881 5878 5876 5873 5872 5871 5870 5869 5868 5867 5867 5867 5867 5866 5866 5866 5866 5866 5865 5865 5864 5865 5865 5866 5868 5870 5872 5873 5875 5877 5879 5881 5883 5887 5889 5891
5888 5888 5887 5887 5886 5884 5882 5880 5876 5873 5871 5870 5868 5867 5867 5866 5865 5865 5865 5865 5865 5865 5865 5865 5864 5864 5863 5862 5862 5862 5863 5864 5864 5865 5867 5869 5871 5873 5875 5878 5882 5883 5887
5884 5885 5885 5885 5884 5882 5880 5878 5875 5872 5869 5867 5866 5865 5864 5863 5863 5863 5863 5864 5864 5864 5864 5863 5862 5862 5862 5861 5860 5860 5859 5860 5861 5861 5861 5861 5866 5868 5867 5871 5874 5842 5876
5880 5882 5883 5883 5882 5880 5877 5875 5872 5869 5867 5865 5864 5863 5862 5860 5860 5861 5861 5861 5861 5861 5861 5861 5860 5860 5860 5860 5858 5857 5857 5857 5857 5857 5858 5858 5861 5862 5862 5866 5869 5872 5875
5875 5876 5878 5878 5878 5877 5875 5873 5870 5868 5865 5864 5863 5861 5860 5858 5858 5858 5859 5859 5858 5858 5858 5857 5857 5857 5856 5857 5856 5855 5855 5856 5855 5854 5853 5852 5854 5856 5854 5858 5859 5864 5869
5870 5871 5873 5873 5874 5873 5872 5870 5868 5867 5865 5863 5862 5860 5859 5858 5857 5856 5855 5856 5856 5855 5855 5855 5854 5853 5852 5852 5851 5851 5850 5850 5852 5852 5851 5849 5848 5849 5849 5852 5855 5860 5862
5866 5866 5867 5868 5868 5869 5868 5867 5865 5864 5863 5861 5860 5859 5857 5856 5855 5855 5853 5852 5850 5850 5851 5850 5850 5850 5848 5847 5846 5846 5846 5847 5847 5847 5849 5849 5847 5847 5846 5847 5851 5855 5858
5860 5862 5862 5863 5863 5864 5863 5863 5861 5860 5858 5857 5857 5855 5854 5852 5852 5852 5852 5851 5850 5848 5846 5844 5844 5843 5842 5842 5841 5840 5840 5841 5841 5842 5843 5845 5846 5845 5844 5846 5849 5851 5854
5854 5855 5857 5857 5858 5858 5857 5856 5856 5855 5853 5851 5850 5850 5849 5848 5847 5846 5846 5845 5845 5845 5843 5841 5839 5837 5837 5835 5835 5835 5834 5834 5834 5835 5838 5840 5841 5842 5842 5842 5844 5847 5848
5848 5849 5850 5850 5850 5850 5850 5849 5848 5847 5846 5844 5843 5842 5841 5840 5840 5838 5837 5836 5836 5837 5838 5838 5836 5833 5831 5828 5827 5826 5827 5828 5827 5828 5829 5832 5835 5836 5838 5839 5841 5842 5843
5839 5840 5841 5842 5842 5842 5842 5841 5840 5838 5837 5835 5833 5832 5834 5834 5832 5830 5828 5827 5825 5826 5828 5830 5830 5829 5826 5823 5820 5818 5818 5819 5820 5821 5822 5827 5825 5829 5831 5833 5834 5835 5837
5829 5830 5830 5831 5831 5832 5832 5832 5832 5831 5828 5825 5823 5821 5821 5822 5823 5820 5818 5817 5819 5818 5818 5817 5816 5820 5819 5817 5814 5811 5809 5811 5811 5813 5816 5818 5818 5821 5823 5825 5827 5829 5830
5819 5820 5821 5821 5822 5822 5822 5822 5823 5822 5820 5816 5814 5812 5810 5807 5801 5805 5778 5803 5805 5805 5807 5807 5809 5809 5810 5809 5806 5803 5801 5800 5801 5804 5806 5810 5810 5813 5815 5817 5818 5820 5822
5810 5811 5811 5812 5812 5811 5812 5812 5811 5811 5807 5804 5804 5802 5801 5800 5798 5784 5791 5791 5797 5793 5790 5787 5790 5797 5800 5801 5799 5795 5792 5791 5793 5794 5795 5799 5801 5803 5805 5806 5807 5809 5810
5800 5801 5802 5802 5802 5802 5803 5803 5802 5799 5796 5793 5791 5790 5790 5786 5780 5781 5782 5784 5785 5782 5775 5770 5769 5779 5788 5791 5788 5785 5784 5781 5782 5784 5786 5789 5790 5792 5793 5794 5795 5797 5799
Wind_Speed
15 18 15 12 15 11 6 4 3 3 6 9 11 9 8 7 7 7 6 14 10 12 14 14 18 15 12 10 8 4 9 10 7 13 2 2 4 5 4 10 6 10 11
15 16 13 11 11 10 8 3 3 5 8 9 10 11 10 8 9 10 8 6 11 13 16 18 16 17 15 11 10 11 11 11 9 15 6 5 4 3 2 8 6 8 12
14 13 11 11 9 8 7 6 6 6 7 10 9 11 12 11 11 9 13 11 16 16 12 14 16 16 16 15 17 12 13 12 13 10 8 9 9 6 4 7 6 7 9
13 9 9 12 12 9 9 10 11 10 9 9 9 10 12 14 13 11 12 14 14 17 16 20 15 18 17 19 17 16 13 12 15 12 10 10 9 6 5 8 8 9 8
8 5 6 9 11 12 12 12 14 14 12 10 10 11 12 13 12 14 15 16 16 20 11 20 19 14 16 21 22 20 15 15 17 16 13 10 9 9 10 8 10 12 9
7 4 6 7 9 10 12 14 15 17 12 9 10 11 13 13 13 13 11 15 17 13 17 19 18 14 21 24 26 21 19 14 14 16 14 13 12 12 9 11 11 13 13
2 6 7 8 11 12 12 14 15 17 16 10 9 9 11 13 14 13 12 13 7 15 16 17 17 14 16 19 20 19 18 18 16 16 17 17 15 15 11 8 9 13 16
2 0 4 9 11 12 13 14 15 14 16 12 11 11 12 13 13 14 12 13 12 14 15 13 11 11 11 11 13 17 18 17 17 17 18 20 20 18 14 11 19 10 17
8 10 10 9 12 16 15 13 13 13 13 14 11 14 14 14 14 13 13 14 13 15 16 12 11 11 11 12 12 14 15 16 17 17 20 21 22 20 18 16 16 16 15
10 12 11 11 13 16 18 16 14 12 11 11 11 12 15 15 14 13 13 13 11 9 10 10 11 11 13 15 17 17 17 18 18 18 19 20 27 23 20 18 17 16 16
14 15 18 17 13 15 17 19 20 20 16 11 10 11 13 15 15 15 13 12 11 10 10 10 11 11 13 17 18 20 21 18 17 18 18 22 23 24 22 20 20 18 16
17 17 16 12 12 13 14 17 20 20 20 18 13 11 12 13 15 14 12 12 11 10 12 13 11 12 13 14 17 20 19 20 22 21 21 25 25 25 27 27 22 22 18
16 18 12 8 7 10 13 16 21 23 20 17 14 12 12 10 12 14 14 13 13 13 14 14 15 14 11 12 11 14 16 18 20 20 24 30 30 30 31 29 25 25 22
19 18 11 8 8 10 14 16 17 18 18 16 14 13 13 12 11 11 14 15 15 15 16 16 17 14 12 10 11 13 16 18 19 20 21 26 31 33 36 34 25 19 21
17 14 10 8 9 10 10 15 15 19 18 15 13 13 13 12 14 12 11 13 16 18 17 16 16 15 12 12 10 11 14 19 22 22 23 27 28 35 38 40 36 36 31
21 17 12 9 7 9 10 14 15 17 19 15 14 12 12 12 12 13 13 13 14 17 17 15 16 15 13 13 12 12 13 12 15 16 15 21 28 38 36 41 40 36 33
18 19 14 13 11 11 11 12 15 14 14 14 14 14 12 11 11 10 12 14 15 15 16 15 15 14 13 11 12 14 15 16 15 15 14 16 16 24 29 30 38 38 36
17 16 17 16 17 15 14 13 16 16 14 12 11 12 14 14 13 14 13 13 12 12 14 14 13 13 13 13 13 13 13 16 18 17 16 13 12 11 12 18 28 35 33
22 20 20 21 21 20 19 16 16 19 19 18 16 13 14 12 16 17 16 18 21 21 18 18 18 19 17 17 17 16 13 15 15 17 19 17 15 15 15 19 21 19 24
25 24 24 24 24 25 20 21 21 22 23 23 22 20 19 16 16 16 21 24 25 29 31 29 26 26 25 24 24 24 21 17 16 16 18 19 21 18 15 14 17 20 24
28 28 28 28 27 27 29 22 25 24 27 27 27 27 28 28 27 25 27 23 25 25 31 35 36 32 31 27 30 30 30 28 23 22 19 19 23 24 24 23 22 22 22
31 31 31 33 34 33 30 28 27 30 31 32 34 34 33 32 34 36 36 31 25 24 27 34 36 41 34 27 27 27 34 35 33 29 26 19 27 25 25 25 27 29 28
32 32 33 35 35 32 32 30 28 29 30 37 39 45 45 42 39 44 45 43 35 31 32 40 43 38 37 40 28 32 33 38 40 37 34 28 28 29 28 26 28 28 29
31 32 33 33 31 32 32 30 29 30 32 38 40 46 47 47 46 51 36 39 35 39 45 43 45 35 34 29 25 28 34 36 39 36 32 32 30 30 30 29 27 29 29
34 34 34 33 31 33 33 34 33 34 36 40 42 45 43 43 47 42 47 40 45 49 54 62 58 49 41 33 30 29 28 35 40 35 36 36 36 35 34 32 32 34 35
35 33 32 33 34 37 38 38 39 37 33 36 37 35 37 43 47 46 48 47 40 44 32 25 27 38 34 34 30 28 28 28 32 42 43 39 39 42 43 42 41 40 40
Wind_Direction
337 338 344 357 3 17 111 155 160 216 271 280 275 274 269 266 266 273 284 246 242 236 234 231 233 235 222 229 235 244 231 265 273 297 3 45 340 352 207 173 175 157 156
343 344 349 1 7 10 11 2 2 248 312 291 291 284 280 268 262 261 251 239 252 242 241 230 226 229 233 238 233 255 241 252 255 278 295 271 272 300 230 191 177 169 174
334 337 339 352 11 10 3 350 326 292 276 280 284 275 282 281 268 259 257 265 259 244 233 234 232 232 239 241 243 243 246 246 241 248 271 257 273 241 238 215 200 196 187
327 326 337 339 337 344 346 341 337 327 307 272 271 268 275 272 264 271 265 268 272 273 259 241 249 247 239 245 249 258 259 268 259 251 243 257 261 244 253 216 217 204 189
359 347 328 335 333 327 330 333 337 328 307 289 259 265 272 269 270 264 282 275 264 260 248 236 243 232 258 248 255 259 261 260 243 241 252 242 249 250 223 244 223 209 201
356 359 359 7 16 2 347 338 340 346 321 287 278 261 273 274 266 260 273 271 271 274 267 260 254 248 258 268 258 243 250 253 236 231 234 230 236 235 227 225 236 219 208
25 69 47 24 16 360 349 342 336 344 342 309 288 266 274 281 279 271 276 277 273 260 273 276 270 308 268 257 242 240 248 255 246 242 240 231 233 230 222 227 231 225 218
232 321 351 1 356 347 342 344 343 339 345 329 298 272 270 279 283 279 272 267 268 268 272 284 273 257 248 244 229 238 246 248 245 246 238 232 225 229 220 219 224 230 223
271 271 284 312 336 335 332 328 329 334 336 334 308 281 276 278 285 282 277 272 269 264 268 266 262 246 240 239 237 238 241 248 249 253 253 239 221 229 222 212 224 227 227
273 272 284 304 318 314 316 317 314 318 318 315 317 288 269 275 277 274 271 269 261 271 261 257 259 250 251 244 240 243 246 256 248 261 258 237 223 225 227 223 220 223 224
260 274 278 291 294 298 314 317 324 323 318 296 297 299 285 272 272 272 271 264 266 271 281 288 277 272 275 259 247 248 252 249 252 251 248 221 219 221 224 227 231 226 227
256 256 271 280 287 306 317 320 315 311 309 310 296 284 279 281 275 270 261 258 269 271 286 278 276 278 284 275 260 254 251 253 255 249 244 227 230 226 226 228 232 232 232
250 254 258 263 276 296 309 321 320 319 321 316 302 296 275 287 282 277 262 256 261 268 274 269 267 280 295 275 269 258 255 255 251 249 249 232 232 234 229 225 230 235 235
243 248 243 233 254 297 329 339 339 346 331 325 311 300 293 293 299 289 275 270 265 264 265 267 268 271 279 288 279 269 263 258 255 257 253 236 238 239 238 222 221 205 227
255 247 246 246 268 301 338 351 347 353 346 326 314 304 300 295 294 290 281 276 268 265 261 263 266 271 272 279 289 290 275 267 255 261 258 260 250 253 247 234 221 228 233
249 251 233 233 262 293 323 349 350 348 354 340 338 317 307 307 298 289 279 273 270 270 268 265 265 266 272 281 286 290 293 292 278 267 277 259 253 245 238 241 234 229 231
240 241 227 236 257 277 297 322 343 341 346 354 329 330 321 315 298 287 287 287 276 269 270 270 271 279 280 279 290 291 287 291 296 302 287 275 282 251 248 253 225 229 233
238 240 236 241 260 267 279 299 318 323 321 321 333 337 335 317 296 286 275 272 275 271 269 268 271 268 267 272 281 298 287 283 288 288 293 290 267 245 258 249 235 233 238
242 246 251 249 253 266 276 283 292 299 302 302 301 300 305 312 305 299 295 293 288 279 266 252 248 248 251 258 265 274 279 280 294 285 280 285 282 273 265 243 239 240 241
247 243 246 252 260 269 271 279 284 287 286 284 289 294 285 283 293 296 294 288 291 293 276 273 272 264 258 256 256 258 258 259 262 272 268 270 267 265 262 258 257 254 249
250 252 252 255 261 270 277 278 282 280 278 279 282 282 285 287 282 276 279 277 284 285 289 286 276 269 269 266 259 255 258 257 258 250 253 269 269 267 258 254 252 249 247
262 262 261 262 264 268 269 272 274 279 283 284 281 275 273 277 282 281 277 272 272 284 291 286 279 279 272 275 279 274 261 259 260 258 254 245 258 256 260 260 261 261 259
263 262 261 263 266 264 261 265 270 275 285 285 287 287 283 279 277 274 273 273 270 270 282 288 277 270 266 273 281 281 268 259 260 262 266 260 262 264 264 263 262 262 263
264 266 266 267 267 265 264 263 267 275 281 280 280 281 281 284 280 290 237 251 290 281 286 277 287 263 270 269 270 278 269 259 252 256 262 268 264 267 269 270 268 267 265
266 268 270 269 267 264 266 271 273 283 282 278 276 277 285 290 279 276 277 286 283 291 288 282 268 262 265 269 269 273 288 262 251 250 253 257 263 260 262 263 264 263 262
267 268 269 269 265 261 264 269 276 285 282 285 279 277 280 282 279 277 278 279 281 295 286 282 258 237 251 260 266 273 277 285 253 255 255 253 257 258 258 258 258 258 260